Left ArrowRight Arrow

Hourly Observations for February 22, 2021

Temp ( °F °C ) Dew Point ( °F °C ) Humidity (%) Winds ( mph kmh ) Pressure ( in mb ) Visibility ( mi km ) Precip ( " mm )
12:51 am 00:51 Clear 28 -2.2 16 -8.9 60 60 S 5 7 30.41 1030 10 16 0.00 0.00
1:51 am 01:51 Clear 29 -1.7 16 -8.9 58 58 S 5 7 30.40 1030 10 16 0.00 0.00
2:51 am 02:51 Clear 28 -2.2 17 -8.3 63 63 SSW 5 7 30.37 1028 10 16 0.00 0.00
3:51 am 03:51 Cloudy 30 -1.1 17 -8.3 58 58 SSE 5 7 30.32 1027 10 16 0.00 0.00
4:51 am 04:51 Cloudy 31 -0.6 16 -8.9 54 54 S 10 17 30.30 1026 10 16 0.00 0.00
5:51 am 05:51 Clear 30 -1.1 17 -8.3 58 58 S 9 15 30.28 1025 10 16 0.00 0.00
6:51 am 06:51 Sunny 30 -1.1 19 -7.2 64 64 S 8 13 30.24 1024 10 16 0.00 0.00
7:51 am 07:51 Sunny 32 0 20 -6.7 61 61 SSW 13 20 30.22 1023 10 16 0.00 0.00
8:51 am 08:51 Sunny 33 0.6 24 -4.4 70 70 SSW 12 19 30.19 1023 10 16 0.00 0.00
9:51 am 09:51 Mostly Cloudy 35 1.7 25 -3.9 67 67 S 12 19 30.14 1021 10 16 0.00 0.00
10:51 am 10:51 Cloudy 36 2.2 26 -3.3 67 67 S 10 17 30.09 1019 10 16 0.00 0.00
11:21 am 11:21 Windy with Snow Likely 36 2.2 27 -2.8 70 70 SSW 21 33 30.07 1018 2 3 0.00 0.00
11:41 am 11:41 Cloudy with Wintry Mix 33 0.6 29 -1.7 85 85 SSW 10 17 30.06 1018 1 1 0.01 0.25
11:51 am 11:51 Cloudy with Wintry Mix 33 0.6 29 -1.7 85 85 S 9 15 30.05 1018 1 1 0.02 0.51
12:49 pm 12:49 Cloudy with Heavy Snow 32 0 30 -1 93 93 Calm 29.97 1015 0 0 0.09 2.29
12:51 pm 12:51 Cloudy with Heavy Snow 32 0 30 -1.1 92 92 ESE 3 6 29.96 1015 0 0 0.10 2.54
12:58 pm 12:58 Mostly Cloudy with Heavy Snow 32 0 30 -1 93 93 ESE 3 6 29.95 1014 0 0 0.00 0.00
1:35 pm 13:35 Cloudy with Light Wintry Mix 33 0.6 30 -1.1 89 89 Calm 29.89 1012 1 2 0.12 3.05
1:43 pm 13:43 Cloudy with Light Wintry Mix 33 0.6 31 -0.6 92 92 NNE 3 6 29.88 1012 1 2 0.14 3.56
1:51 pm 13:51 Cloudy with Light Rain 33 0.6 30 -1.1 89 89 Calm 29.87 1012 1 2 0.16 4.06
2:51 pm 14:51 Cloudy with Light Rain 33 0.6 32 0 96 96 Calm 29.80 1009 1 2 0.11 2.79
2:58 pm 14:58 Cloudy with Light Rain 33 0.6 32 0 96 96 Calm 29.80 1009 2 3 0.00 0.00
3:51 pm 15:51 Cloudy with Light Rain 34 1.1 31 -0.6 89 89 WNW 3 6 29.75 1008 2 3 0.05 1.27
4:51 pm 16:51 Cloudy with Light Rain 33 0.6 31 -0.6 92 92 Calm 29.72 1006 2 3 0.04 1.02
5:03 pm 17:03 Cloudy with Mist and Fog 34 1.1 31 -0.6 89 89 Calm 29.72 1006 3 4 0.00 0.00
5:20 pm 17:20 Cloudy with Mist and Fog 34 1.1 32 0 92 92 WNW 3 6 29.71 1006 3 4 0.00 0.00
5:27 pm 17:27 Cloudy with Mist and Fog 34 1.1 31 -0.6 89 89 WNW 5 7 29.71 1006 3 4 0.00 0.00
5:45 pm 17:45 Cloudy with Mist and Fog 34 1 30 -1 87 87 NW 3 6 29.71 1006 5 8 0.00 0.00
5:51 pm 17:51 Cloudy with Mist and Fog 34 1.1 31 -0.6 89 89 W 3 6 29.71 1006 5 8 0.00 0.00
6:51 pm 18:51 Cloudy 35 1.7 32 0 89 89 W 9 15 29.71 1006 10 16 0.00 0.00
7:51 pm 19:51 Cloudy 35 1.7 32 0 89 89 W 9 15 29.72 1006 10 16 0.00 0.00
8:51 pm 20:51 Clear 35 1.7 31 -0.6 85 85 W 12 19 29.72 1007 10 16 0.00 0.00
9:51 pm 21:51 Cloudy 36 2.2 32 0 86 86 W 9 15 29.73 1007 10 16 0.00 0.00
10:51 pm 22:51 Cloudy 36 2.2 31 -0.6 82 82 W 12 19 29.74 1007 10 16 0.00 0.00
11:51 pm 23:51 Mostly Clear 36 2.2 30 -1.1 79 79 WSW 9 15 29.73 1007 10 16 0.00 0.00

Powered by Vaisala Xweather